Flag for Germany Weather past 2 weeks in Frankfurt, Hesse, Germany

Now
55 °F

Passing clouds.


Feels Like: 53 °F
Forecast: 42 / 60 °F
Wind: 10 mph from North

Location: Frankfurt-M-Flughafen Airport

Current Time: Sep 22, 2014 at 5:14:56 PM

Latest Report: Sep 22, 2014 at 4:50 PM


Visibility: N/A

Pressure: 30.07 "Hg

Humidity: 67%

Dew point: 45 °F

Location of FrankfurtLocation

Historic Weather in Frankfurt — Graph

°F

Frankfurt temperature yesterday

Maximum temperature yesterday: 66 °F (at 1:50 PM)
Minimum temperature yesterday: 55 °F (at 11:20 PM)
Average temperature yesterday: 61 °F

Past Weeks' High & Low Weather Summary

 TemperatureHumidityPressure
High77 °F (Sep 17, 3:50 PM)100% (Sep 8, 7:50 AM)30.18 "Hg (Sep 8, 7:50 AM)
Low46 °F (Sep 11, 2:20 AM)46% (Sep 9, 5:50 PM)29.86 "Hg (Sep 17, 4:50 PM)
Average63 °F83%30.01 "Hg
* Reported Sep 7 4:20 PM — Sep 22 4:20 PM, Frankfurt, Weather by CustomWeather, © 2014

Note: Actual official high and low records may vary slightly from our data, if they occured in-between our weather recording intervals... More about our weather records

Advertising

Frankfurt weather history for previous 24 hours

 ConditionsComfort  
Time TempWeatherWind HumidityBarometerVisibility
4:20 PM
Sep 22
55 °FPassing clouds.10 mph72%30.07 "HgN/A
3:50 PM54 °FPassing clouds.7 mph82%30.07 "HgN/A
3:20 PM50 °FThunderstorms. Partly sunny.12 mph94%30.07 "HgN/A
2:50 PM54 °FThunderstorms. Broken clouds.21 mph72%30.07 "Hg2 mi
2:20 PM59 °FPartly sunny.16 mph68%30.04 "HgN/A
1:50 PM57 °FScattered showers. Broken clouds.13 mph77%30.04 "HgN/A
1:20 PM57 °FScattered showers. Broken clouds.12 mph77%30.07 "HgN/A
12:50 PM55 °FSprinkles. Broken clouds.14 mph82%30.07 "HgN/A
12:20 PM57 °FSprinkles. Broken clouds.9 mph77%30.07 "HgN/A
11:50 AM57 °FScattered showers. Broken clouds.13 mph72%30.07 "HgN/A
11:20 AM57 °FBroken clouds.13 mph72%30.07 "HgN/A
10:50 AM57 °FPartly sunny.10 mph77%30.09 "HgN/A
10:20 AM55 °FPartly sunny.13 mph82%30.09 "HgN/A
9:50 AM55 °FBroken clouds.10 mph82%30.09 "HgN/A
9:20 AM55 °FBroken clouds.12 mph82%30.09 "HgN/A
8:50 AM55 °FBroken clouds.13 mph77%30.09 "HgN/A
8:20 AM55 °FBroken clouds.10 mph82%30.09 "HgN/A
7:50 AM55 °FPartly cloudy.8 mph82%30.09 "HgN/A
7:20 AM54 °FPassing clouds.10 mph88%30.09 "HgN/A
6:50 AM54 °FPassing clouds.9 mph88%30.09 "HgN/A
6:20 AM55 °FPassing clouds.9 mph82%30.09 "HgN/A
5:50 AM55 °FPassing clouds.8 mph82%30.09 "HgN/A
5:20 AM54 °FPassing clouds.8 mph88%30.09 "HgN/A
4:50 AM54 °FPassing clouds.5 mph88%30.09 "HgN/A
4:20 AM54 °FPassing clouds.3 mph88%30.09 "HgN/A
3:50 AM54 °FPassing clouds.9 mph88%30.09 "HgN/A
3:20 AM54 °FPassing clouds.12 mph88%30.09 "HgN/A
2:50 AM54 °FPassing clouds.8 mph88%30.09 "HgN/A
2:20 AM54 °FClear.12 mph88%30.09 "Hg10 mi
1:50 AM54 °FClear.9 mph88%30.09 "Hg10 mi
1:20 AM54 °FClear.8 mph88%30.09 "Hg10 mi
12:50 AM54 °FClear.8 mph88%30.09 "Hg10 mi
12:20 AM55 °FClear.8 mph88%30.07 "Hg10 mi
11:50 PM
Sep 21
55 °FClear.7 mph88%30.07 "Hg10 mi
11:20 PM55 °FClear.9 mph88%30.07 "Hg10 mi
10:20 PM57 °FClear.10 mph88%30.07 "Hg10 mi
9:50 PM59 °FClear.9 mph82%30.07 "Hg10 mi
9:20 PM59 °FPassing clouds.10 mph82%30.04 "HgN/A
8:50 PM59 °FPassing clouds.9 mph88%30.04 "HgN/A
8:20 PM61 °FPartly sunny.6 mph83%30.01 "HgN/A
7:50 PM61 °FPartly sunny.7 mph83%30.01 "HgN/A
7:20 PM61 °FBroken clouds.6 mph88%30.01 "HgN/A
6:50 PM63 °FBroken clouds.6 mph88%29.98 "HgN/A
6:20 PM63 °FScattered showers. Broken clouds.6 mph88%29.98 "HgN/A
5:50 PM63 °FSprinkles. Partly sunny.6 mph88%29.98 "HgN/A
5:20 PM63 °FScattered showers. Broken clouds.5 mph88%29.98 "HgN/A
Weather by CustomWeather, © 2014

See weather overviewHow to use our weather pages